Hourly Weather Rublevo

Today, 20 April, Tuesday

Time Temperature Precipitation Wind Pressure Humidity
00:00 +8°C° 0 mm 2 mps 760 mmHg 73%
01:00 +7°C° 0 mm 2 mps 760 mmHg 78%
02:00 +6°C° 0 mm 2 mps 760 mmHg 83%
03:00 +6°C° 0 mm 2 mps 760 mmHg 83%
04:00 +5°C° 0 mm 2 mps 759 mmHg 84%
05:00 +4°C° 0 mm 2 mps 759 mmHg 85%
06:00 +6°C° 0 mm 2 mps 759 mmHg 76%
07:00 +7°C° 0 mm 3 mps 759 mmHg 68%
08:00 +9°C° 0 mm 3 mps 759 mmHg 59%
09:00 +9°C° 0 mm 3 mps 758 mmHg 56%
10:00 +10°C° 0 mm 3 mps 758 mmHg 52%
11:00 +10°C° 0 mm 4 mps 757 mmHg 49%
12:00 +10°C° 0.1 mm 4 mps 757 mmHg 53%
13:00 +10°C° 0.1 mm 4 mps 757 mmHg 57%
14:00 +8°C° 0.1 mm 4 mps 757 mmHg 61%
15:00 +8°C° 0.1 mm 4 mps 757 mmHg 61%
16:00 +9°C° 0.1 mm 3 mps 756 mmHg 62%
17:00 +9°C° 0.1 mm 3 mps 756 mmHg 63%
18:00 +8°C° 0 mm 3 mps 756 mmHg 66%
19:00 +8°C° 0 mm 3 mps 756 mmHg 69%
20:00 +7°C° 0 mm 2 mps 755 mmHg 71%
21:00 +7°C° 0 mm 2 mps 755 mmHg 74%
22:00 +6°C° 0 mm 2 mps 755 mmHg 77%
23:00 +7°C° 0 mm 1 mps 754 mmHg 79%

Tomorrow, 21 April, Wednesday

Time Temperature Precipitation Wind Pressure Humidity
00:00 +7°C° 0 mm 1 mps 754 mmHg 81%
01:00 +7°C° 0 mm 1 mps 753 mmHg 82%
02:00 +6°C° 0 mm 0 mps 753 mmHg 83%
03:00 +6°C° 0 mm 1 mps 752 mmHg 84%
04:00 +6°C° 0 mm 1 mps 752 mmHg 84%
05:00 +6°C° 0 mm 1 mps 751 mmHg 84%
06:00 +7°C° 0 mm 1 mps 751 mmHg 82%
07:00 +7°C° 0 mm 1 mps 751 mmHg 79%
08:00 +7°C° 0 mm 1 mps 750 mmHg 77%
09:00 +8°C° 0 mm 1 mps 750 mmHg 70%
10:00 +8°C° 0 mm 2 mps 749 mmHg 63%
11:00 +9°C° 0 mm 2 mps 749 mmHg 56%
12:00 +10°C° 0 mm 2 mps 749 mmHg 51%
13:00 +12°C° 0 mm 2 mps 748 mmHg 46%
14:00 +12°C° 0 mm 3 mps 748 mmHg 41%
15:00 +12°C° 0 mm 3 mps 748 mmHg 43%
16:00 +12°C° 0 mm 3 mps 748 mmHg 45%
17:00 +12°C° 0 mm 3 mps 748 mmHg 47%
18:00 +10°C° 0 mm 2 mps 748 mmHg 53%
19:00 +9°C° 0 mm 2 mps 748 mmHg 60%
20:00 +8°C° 0 mm 2 mps 748 mmHg 67%
21:00 +7°C° 0 mm 2 mps 748 mmHg 72%
22:00 +6°C° 0 mm 2 mps 748 mmHg 77%
23:00 +6°C° 0 mm 2 mps 748 mmHg 82%

Day after tomorrow, 22 April, Thursday

Time Temperature Precipitation Wind Pressure Humidity
00:00 +5°C° 0 mm 2 mps 748 mmHg 83%
01:00 +5°C° 0 mm 2 mps 748 mmHg 84%
02:00 +5°C° 0 mm 2 mps 748 mmHg 85%
03:00 +5°C° 0.1 mm 2 mps 748 mmHg 87%
04:00 +5°C° 0.1 mm 2 mps 748 mmHg 89%
05:00 +4°C° 0.1 mm 2 mps 748 mmHg 91%
06:00 +6°C° 0 mm 2 mps 749 mmHg 82%
07:00 +8°C° 0 mm 3 mps 749 mmHg 73%
08:00 +9°C° 0 mm 3 mps 749 mmHg 64%
09:00 +11°C° 0 mm 3 mps 749 mmHg 57%
10:00 +12°C° 0 mm 3 mps 749 mmHg 51%
11:00 +14°C° 0 mm 3 mps 750 mmHg 45%
12:00 +14°C° 0 mm 4 mps 749 mmHg 42%
13:00 +15°C° 0 mm 4 mps 749 mmHg 39%
14:00 +17°C° 0 mm 4 mps 749 mmHg 36%
15:00 +14°C° 0.2 mm 4 mps 750 mmHg 47%
16:00 +13°C° 0.2 mm 4 mps 750 mmHg 58%
17:00 +11°C° 0.2 mm 4 mps 750 mmHg 69%
18:00 +10°C° 0.1 mm 3 mps 751 mmHg 72%
19:00 +8°C° 0.1 mm 3 mps 751 mmHg 75%
20:00 +7°C° 0.1 mm 2 mps 751 mmHg 78%
21:00 +6°C° 0 mm 2 mps 751 mmHg 79%
22:00 +7°C° 0 mm 1 mps 751 mmHg 81%
23:00 +6°C° 0 mm 1 mps 751 mmHg 82%

23 April, Friday

Time Temperature Precipitation Wind Pressure Humidity
00:00 +6°C° 0 mm 1 mps 751 mmHg 81%
01:00 +6°C° 0 mm 1 mps 751 mmHg 81%
02:00 +5°C° 0 mm 2 mps 750 mmHg 80%
03:00 +5°C° 0.2 mm 2 mps 750 mmHg 83%
04:00 +5°C° 0.2 mm 2 mps 750 mmHg 86%
05:00 +5°C° 0.2 mm 2 mps 750 mmHg 89%
06:00 +4°C° 0.7 mm 3 mps 750 mmHg 86%
07:00 +4°C° 0.7 mm 3 mps 750 mmHg 83%
08:00 +4°C° 0.7 mm 3 mps 750 mmHg 80%
09:00 +5°C° 0.1 mm 3 mps 750 mmHg 72%
10:00 +6°C° 0.1 mm 4 mps 750 mmHg 63%
11:00 +7°C° 0.1 mm 5 mps 750 mmHg 55%
12:00 +7°C° 0.3 mm 5 mps 750 mmHg 55%
13:00 +7°C° 0.3 mm 5 mps 750 mmHg 54%
14:00 +7°C° 0.3 mm 5 mps 750 mmHg 53%
15:00 +7°C° 0.1 mm 5 mps 750 mmHg 53%
16:00 +7°C° 0.1 mm 5 mps 750 mmHg 52%
17:00 +8°C° 0.1 mm 5 mps 750 mmHg 51%
18:00 +6°C° 0 mm 4 mps 750 mmHg 60%
19:00 +5°C° 0 mm 4 mps 750 mmHg 70%
20:00 +3°C° 0 mm 3 mps 750 mmHg 79%
21:00 +2°C° 0 mm 3 mps 750 mmHg 83%
22:00 +2°C° 0 mm 3 mps 750 mmHg 87%
23:00 +2°C° 0 mm 2 mps 750 mmHg 91%

24 April, Saturday

Time Temperature Precipitation Wind Pressure Humidity
00:00 +2°C° 0.1 mm 2 mps 750 mmHg 92%
01:00 +1°C° 0.1 mm 3 mps 750 mmHg 93%
02:00 +1°C° 0.1 mm 3 mps 750 mmHg 94%
03:00 +1°C° 0.1 mm 3 mps 750 mmHg 93%
04:00 +1°C° 0.1 mm 3 mps 750 mmHg 92%
05:00 +1°C° 0.1 mm 3 mps 750 mmHg 91%
06:00 +1°C° 0.2 mm 3 mps 750 mmHg 92%
07:00 +1°C° 0.2 mm 3 mps 750 mmHg 93%
08:00 +1°C° 0.2 mm 3 mps 750 mmHg 94%
09:00 +1°C° 0.3 mm 3 mps 750 mmHg 90%
10:00 +2°C° 0.3 mm 3 mps 751 mmHg 87%
11:00 +2°C° 0.3 mm 3 mps 751 mmHg 83%
12:00 +3°C° 0.3 mm 3 mps 751 mmHg 78%
13:00 +4°C° 0.3 mm 3 mps 751 mmHg 73%
14:00 +5°C° 0.3 mm 3 mps 751 mmHg 67%
15:00 +5°C° 0.3 mm 3 mps 751 mmHg 66%
16:00 +5°C° 0.3 mm 3 mps 751 mmHg 65%
17:00 +5°C° 0.3 mm 3 mps 751 mmHg 64%
18:00 +3°C° 0.1 mm 3 mps 751 mmHg 68%
19:00 +2°C° 0.1 mm 3 mps 752 mmHg 73%
20:00 +1°C° 0.1 mm 3 mps 752 mmHg 77%
21:00 0°C° 0 mm 3 mps 752 mmHg 80%
22:00 -1°C° 0 mm 3 mps 752 mmHg 83%
23:00 -2°C° 0 mm 3 mps 752 mmHg 87%

25 April, Sunday

Time Temperature Precipitation Wind Pressure Humidity
00:00 -2°C° 0 mm 3 mps 752 mmHg 88%
01:00 -2°C° 0 mm 3 mps 752 mmHg 90%
02:00 -2°C° 0 mm 3 mps 752 mmHg 92%
03:00 -2°C° 0 mm 3 mps 751 mmHg 92%
04:00 -2°C° 0 mm 2 mps 751 mmHg 93%
05:00 -2°C° 0 mm 2 mps 751 mmHg 93%
06:00 -1°C° 0.2 mm 2 mps 750 mmHg 91%
07:00 +1°C° 0.2 mm 2 mps 750 mmHg 88%
08:00 +1°C° 0.2 mm 2 mps 750 mmHg 86%
09:00 +2°C° 0.3 mm 2 mps 750 mmHg 80%
10:00 +3°C° 0.3 mm 2 mps 750 mmHg 74%
11:00 +4°C° 0.3 mm 2 mps 750 mmHg 68%
12:00 +3°C° 0.2 mm 3 mps 750 mmHg 64%
13:00 +4°C° 0.2 mm 3 mps 750 mmHg 59%
14:00 +4°C° 0.2 mm 4 mps 750 mmHg 55%
15:00 +5°C° 0 mm 4 mps 750 mmHg 54%
16:00 +5°C° 0 mm 4 mps 750 mmHg 53%
17:00 +5°C° 0 mm 4 mps 750 mmHg 52%
18:00 +4°C° 0.1 mm 4 mps 750 mmHg 62%
19:00 +2°C° 0.1 mm 3 mps 751 mmHg 71%
20:00 +1°C° 0.1 mm 3 mps 751 mmHg 81%
21:00 0°C° 0 mm 4 mps 751 mmHg 83%
22:00 0°C° 0 mm 4 mps 751 mmHg 86%
23:00 0°C° 0 mm 5 mps 751 mmHg 88%
Show more